Regional Weather Roundup
Issued by NWS New Orleans/Baton Rouge, LA

Home | Current Version | Previous Version | Graphics & Text | Print | Product List | Glossary On
Versions: 1 2 3 4 5 6 7 8 9 10 11 12 13 14 15 16 17 18 19 20 21 22 23 24 25 26 27 28 29 30 31 32 33 34 35 36 37 38 39 40 41 42 43 44 45 46 47 48 49 50
663
ASUS44 KLIX 230705
RWRLIX
NEW ORLEANS REGIONAL WEATHER ROUNDUP
NATIONAL WEATHER SERVICE NEW ORLEANS LA
200 AM CDT WED JUL 23 2014

NOTE: "FAIR" INDICATES FEW OR NO CLOUDS BELOW 12,000 FEET WITH NO
      SIGNIFICANT WEATHER AND/OR OBSTRUCTIONS TO VISIBILITY.
      SKY/WX - SKY CONDITION AND SIGNIFICANT WEATHER.
      TMP - AIR TEMPERATURE.     DP    - DEWPOINT TEMPERATURE.
      RH  - RELATIVE HUMIDITY.   PRES  - PRESSURE.
      HI  - HEAT INDEX.          WCI   - WIND CHILL INDEX.

*  THESE STATIONS ARE NOT NWS OR FAA STATIONS AND ARE NOT UNDER
   NWS QUALITY CONTROL.

LAZ038-040-048-061>063-065>067-069-230800-
SOUTHEAST LOUISIANA

CITY           SKY/WX    TMP DP  RH WIND       PRES   REMARKS
N.O. AUDUBON   NOT AVBL
N.O. INTL ARPT CLOUDY    78  71  79 E5        30.02S
N.O. LAKEFRONT PTCLDY    80  74  81 E9        30.02S
N.O. DOWNTOWN*   N/A     81  70  69 E6        30.02S
SLIDELL        PTCLDY    72  69  90 NE5       30.03S
BATON ROUGE    PTCLDY    73  70  90 NE5       30.02F
BOOTHVILLE     MOCLDY    79  75  87 CALM      30.01F
BELLE CHASSE   PTCLDY    76  72  87 CALM      30.01S
BOGALUSA*        N/A     70  67  90 CALM      30.05F FOG
GALLIANO*      NOT AVBL
NEW ROADS*       N/A     73  72  95 CALM      30.02F
GONZALES*        N/A     75  75  99 CALM      30.01F
HAMMOND*       CLEAR     72  68  88 CALM      30.04F
HOUMA*         PTCLDY    76  71  85 CALM      30.01S
PORT FOURCHON* CLOUDY    77  66  69 N7        30.03R

$$

MSZ070-080>082-230800-
SOUTHERN MISSISSIPPI

CITY           SKY/WX    TMP DP  RH WIND       PRES   REMARKS
MCCOMB         CLEAR     69  67  93 CALM      30.04F
GULFPORT       CLEAR     74  69  85 N3        30.02F
BILOXI         CLEAR     71  70  95 N5        30.02F
PASCAGOULA     CLEAR     72  71  97 CALM      30.03S

$$

COASTAL OBSERVATIONS
LAKE AND NEARSHORE STATIONS

STATION/POSITION TIME  TEMP    WIND        PRES    WAVE
                       AIR SEA DIR/SP/G            HT/PER
                 (UTC) (F)     (DEG/KT/KT) (MB)    (FT/S)
PASCAGOULA       0700   77      50/  4/  6 1016.1
WAVELAND YACHT   0700   74      20/  6/  9 1016.0
GRAND ISLE       0700   78 84  250/  3/  6 1016.8
SOUTHWEST PASS   0700   81 85  200/  5/  7 1016.5
NEW CANAL        0700   79 82   80/  4/  7 1016.9
SHELL BEACH      0700   81 81   90/  6/  7 1016.1

OFFSHORE STATIONS

STATION/POSITION TIME  TEMP    WIND        PRES    WAVE
                       AIR SEA DIR/SP/G            HT/PER
                 (UTC) (F)     (DEG/KT/KT) (MB)    (FT/S)
64 S DAUPHIN ISL 0650   82 84  130/  6/  8 1016.5

$$




USA.gov is the U.S. government's official web portal to all federal, state and local government web resources and services.